Regional Weather Roundup
Issued by NWS Sioux Falls, SD

Home | Current Version | Previous Version | Text Only | Print | Product List | Glossary On
Versions: 1 2 3 4 5 6 7 8 9 10 11 12 13 14 15 16 17 18 19 20 21 22 23 24 25 26 27 28 29 30 31 32 33 34 35 36 37 38 39 40 41 42 43 44 45 46 47 48 49 50
000
ASUS43 KFSD 300010
RWRFSD

WEATHER ROUNDUP FOR SE SOUTH DAKOTA/SW MINNESOTA/NW IOWA
NATIONAL WEATHER SERVICE SIOUX FALLS SD
700 PM CDT SUN MAY 29 2016

NOTE: "FAIR" INDICATES FEW OR NO CLOUDS BELOW 12,000 FEET WITH NO
SIGNIFICANT WEATHER AND OR OBSTRUCTIONS TO VISIBILITY.


SDZ038>040-050-052>070-300100-
SOUTHEAST SOUTH DAKOTA

CITY           SKY/WX    TMP DP  RH WIND       PRES   REMARKS
BROOKINGS      SUNNY     75  49  39 NW12      30.00S
CHAMBERLAIN    SUNNY     77  60  55 SE7       29.98F
6HR MIN TEMP:  74; 6HR MAX TEMP:  80;

HURON          SUNNY     77  50  38 VRB3      29.97F
6HR MIN TEMP:  74; 6HR MAX TEMP:  80;

MADISON        FAIR      73  52  46 N6        30.01F
MITCHELL       SUNNY     78  52  40 SE5       29.99F
6HR MIN TEMP:  75; 6HR MAX TEMP:  79;

SIOUX FALLS    SUNNY     77  48  35 NW6       29.99F
6HR MIN TEMP:  74; 6HR MAX TEMP:  79;

WINNER         FAIR      78  54  43 SE12      29.97F
YANKTON        SUNNY     79  54  41 NE5       29.97F
$$

MNZ071-072-080-081-089-090-097-098-300100-
SOUTHWEST MINNESOTA

CITY           SKY/WX    TMP DP  RH WIND       PRES   REMARKS
FAIRMONT       SUNNY     77  46  33 NW16      29.97F
JACKSON        SUNNY     77  37  24 NW16      30.00S
LUVERNE        SUNNY     75  41  29 NW8       30.00F
MARSHALL       SUNNY     78  44  29 NW13      29.97F
6HR MIN TEMP:  74; 6HR MAX TEMP:  79;

MONTEVIDEO     SUNNY     79  43  27 NW9G18    29.98S
PIPESTONE      SUNNY     75  43  31 N8        30.01F
REDWOOD FALLS  SUNNY     78  45  30 NW10      29.95S
TRACY          SUNNY     77  49  37 NW12G18   29.99S
WINDOM         SUNNY     75  43  31 NW7G17    29.99F
WORTHINGTON    SUNNY     74  50  42 W12       30.01F
$$

IAZ001>003-012>014-020>022-031-032-NEZ013-014-SDZ071-300100-
NORTHWEST IOWA

CITY           SKY/WX    TMP DP  RH WIND       PRES   REMARKS
CHEROKEE       SUNNY     77  55  45 NW5       29.99F
DENISON        SUNNY     81  55  41 N6        29.97F
ESTHERVILLE    SUNNY     74  52  46 W16       29.99F
LE MARS        SUNNY     79  54  41 CALM      30.00S
ORANGE CITY    SUNNY     77  52  41 CALM      30.00F
SHELDON        SUNNY     77  46  33 NW7       29.99F
SIOUX CITY     SUNNY     82  57  42 NE7       29.98F
6HR MIN TEMP:  78; 6HR MAX TEMP:  84;

SPENCER        SUNNY     76  49  38 NW7       30.00F
6HR MIN TEMP:  76; 6HR MAX TEMP:  80;

STORM LAKE     SUNNY     79  54  41 NW8G15    30.01S
$$

ABBREVIATIONS USED IN REMARKS
   TC - TEMPERATURE IN CELSIUS
  WCI - WIND CHILL INDEX
   HX - HEAT INDEX
  VSB - VISIBILITY




USA.gov is the U.S. government's official web portal to all federal, state and local government web resources and services.